• In Czech Republic
  • List of Countries
  • For 7 days
  • Water Temperature
  • Satellite Maps
  • Weather Map
  • Weather Widgets
  • user-avatar
    Login

    Hourly Weather Oran

    Today, 11 December, Monday

    Time Temperature Precipitation Wind Pressure Humidity
    00:00 +14°C° 0 mm 7 mps 747 mmHg 69%
    01:00 +14°C° 0 mm 6 mps 746 mmHg 65%
    02:00 +14°C° 0 mm 6 mps 745 mmHg 61%
    03:00 +14°C° 0 mm 5 mps 745 mmHg 57%
    04:00 +14°C° 0 mm 5 mps 744 mmHg 53%
    05:00 +14°C° 0 mm 5 mps 744 mmHg 48%
    06:00 +14°C° 0 mm 5 mps 743 mmHg 44%
    07:00 +15°C° 0 mm 6 mps 743 mmHg 40%
    08:00 +16°C° 0 mm 8 mps 742 mmHg 36%
    09:00 +17°C° 0 mm 9 mps 741 mmHg 31%
    10:00 +19°C° 0 mm 9 mps 741 mmHg 28%
    11:00 +22°C° 0 mm 10 mps 741 mmHg 24%
    12:00 +23°C° 0 mm 10 mps 740 mmHg 21%
    13:00 +22°C° 0 mm 11 mps 741 mmHg 32%
    14:00 +19°C° 0 mm 13 mps 741 mmHg 44%
    15:00 +17°C° 0 mm 14 mps 741 mmHg 55%
    16:00 +15°C° 0.1 mm 13 mps 741 mmHg 59%
    17:00 +13°C° 0.1 mm 12 mps 742 mmHg 63%
    18:00 +12°C° 0.1 mm 11 mps 743 mmHg 68%
    19:00 +12°C° 0.1 mm 10 mps 744 mmHg 67%
    20:00 +12°C° 0.1 mm 9 mps 744 mmHg 67%
    21:00 +12°C° 0.1 mm 9 mps 745 mmHg 67%
    22:00 +12°C° 0.1 mm 8 mps 745 mmHg 66%
    23:00 +12°C° 0.1 mm 7 mps 746 mmHg 66%

    Tomorrow, 12 December, Tuesday

    Time Temperature Precipitation Wind Pressure Humidity
    00:00 +12°C° 0.1 mm 7 mps 746 mmHg 65%
    01:00 +13°C° 0.2 mm 6 mps 747 mmHg 66%
    02:00 +11°C° 0.2 mm 6 mps 747 mmHg 67%
    03:00 +12°C° 0.2 mm 5 mps 747 mmHg 68%
    04:00 +12°C° 0.2 mm 5 mps 747 mmHg 69%
    05:00 +12°C° 0.2 mm 5 mps 748 mmHg 70%
    06:00 +12°C° 0.2 mm 4 mps 748 mmHg 70%
    07:00 +12°C° 0.1 mm 4 mps 749 mmHg 67%
    08:00 +13°C° 0.1 mm 4 mps 749 mmHg 64%
    09:00 +13°C° 0.1 mm 4 mps 750 mmHg 62%
    10:00 +14°C° 0 mm 4 mps 750 mmHg 59%
    11:00 +14°C° 0 mm 5 mps 750 mmHg 57%
    12:00 +15°C° 0 mm 5 mps 751 mmHg 55%
    13:00 +15°C° 0.1 mm 5 mps 751 mmHg 55%
    14:00 +15°C° 0.1 mm 4 mps 751 mmHg 56%
    15:00 +15°C° 0.1 mm 4 mps 751 mmHg 57%
    16:00 +14°C° 0.1 mm 4 mps 752 mmHg 60%
    17:00 +14°C° 0.1 mm 4 mps 753 mmHg 64%
    18:00 +13°C° 0.1 mm 4 mps 753 mmHg 67%
    19:00 +13°C° 0.1 mm 4 mps 754 mmHg 69%
    20:00 +12°C° 0.1 mm 3 mps 755 mmHg 72%
    21:00 +12°C° 0.1 mm 3 mps 756 mmHg 74%
    22:00 +11°C° 0 mm 3 mps 756 mmHg 76%
    23:00 +12°C° 0 mm 2 mps 756 mmHg 79%

    Day after tomorrow, 13 December, Wednesday

    Time Temperature Precipitation Wind Pressure Humidity
    00:00 +12°C° 0 mm 2 mps 757 mmHg 81%
    01:00 +10°C° 0 mm 2 mps 757 mmHg 82%
    02:00 +10°C° 0 mm 2 mps 757 mmHg 84%
    03:00 +10°C° 0 mm 2 mps 757 mmHg 85%
    04:00 +11°C° 0 mm 1 mps 758 mmHg 86%
    05:00 +10°C° 0 mm 1 mps 758 mmHg 86%
    06:00 +10°C° 0 mm 1 mps 758 mmHg 87%
    07:00 +11°C° 0 mm 1 mps 758 mmHg 82%
    08:00 +12°C° 0 mm 1 mps 759 mmHg 77%
    09:00 +13°C° 0 mm 1 mps 760 mmHg 72%
    10:00 +14°C° 0 mm 1 mps 760 mmHg 67%
    11:00 +15°C° 0 mm 1 mps 760 mmHg 63%
    12:00 +15°C° 0 mm 1 mps 760 mmHg 59%
    13:00 +16°C° 0 mm 1 mps 759 mmHg 57%
    14:00 +16°C° 0 mm 1 mps 759 mmHg 55%
    15:00 +16°C° 0 mm 1 mps 759 mmHg 53%
    16:00 +16°C° 0 mm 1 mps 759 mmHg 57%
    17:00 +15°C° 0 mm 1 mps 759 mmHg 61%
    18:00 +14°C° 0 mm 1 mps 759 mmHg 66%
    19:00 +13°C° 0 mm 1 mps 759 mmHg 68%
    20:00 +13°C° 0 mm 1 mps 760 mmHg 71%
    21:00 +12°C° 0 mm 1 mps 760 mmHg 73%
    22:00 +12°C° 0 mm 1 mps 760 mmHg 74%
    23:00 +12°C° 0 mm 1 mps 760 mmHg 75%

    14 December, Thursday

    Time Temperature Precipitation Wind Pressure Humidity
    00:00 +11°C° 0 mm 1 mps 760 mmHg 75%
    01:00 +11°C° 0 mm 1 mps 759 mmHg 76%
    02:00 +11°C° 0 mm 1 mps 759 mmHg 76%
    03:00 +11°C° 0 mm 1 mps 759 mmHg 76%
    04:00 +11°C° 0 mm 1 mps 758 mmHg 76%
    05:00 +10°C° 0 mm 2 mps 758 mmHg 76%
    06:00 +10°C° 0 mm 2 mps 758 mmHg 76%
    07:00 +12°C° 0 mm 2 mps 758 mmHg 69%
    08:00 +14°C° 0 mm 2 mps 758 mmHg 62%
    09:00 +14°C° 0 mm 3 mps 758 mmHg 55%
    10:00 +17°C° 0 mm 3 mps 758 mmHg 50%
    11:00 +18°C° 0 mm 3 mps 757 mmHg 45%
    12:00 +19°C° 0 mm 3 mps 757 mmHg 40%
    13:00 +19°C° 0 mm 3 mps 757 mmHg 41%
    14:00 +19°C° 0 mm 3 mps 756 mmHg 42%
    15:00 +19°C° 0 mm 3 mps 755 mmHg 43%
    16:00 +18°C° 0 mm 3 mps 755 mmHg 50%
    17:00 +16°C° 0 mm 3 mps 755 mmHg 57%
    18:00 +14°C° 0 mm 3 mps 755 mmHg 63%
    19:00 +13°C° 0 mm 3 mps 755 mmHg 64%
    20:00 +13°C° 0 mm 3 mps 755 mmHg 64%
    21:00 +13°C° 0 mm 3 mps 755 mmHg 64%
    22:00 +13°C° 0 mm 3 mps 754 mmHg 63%
    23:00 +13°C° 0 mm 3 mps 754 mmHg 61%

    15 December, Friday

    Time Temperature Precipitation Wind Pressure Humidity
    00:00 +13°C° 0 mm 4 mps 754 mmHg 60%
    01:00 +12°C° 0 mm 4 mps 753 mmHg 58%
    02:00 +12°C° 0 mm 4 mps 753 mmHg 57%
    03:00 +12°C° 0 mm 4 mps 753 mmHg 56%
    04:00 +12°C° 0 mm 4 mps 752 mmHg 54%
    05:00 +12°C° 0 mm 5 mps 752 mmHg 52%
    06:00 +12°C° 0 mm 5 mps 752 mmHg 50%
    07:00 +13°C° 0 mm 5 mps 752 mmHg 47%
    08:00 +15°C° 0 mm 5 mps 752 mmHg 44%
    09:00 +16°C° 0 mm 6 mps 752 mmHg 42%
    10:00 +17°C° 0 mm 6 mps 752 mmHg 40%
    11:00 +18°C° 0 mm 7 mps 752 mmHg 39%
    12:00 +20°C° 0 mm 8 mps 751 mmHg 38%
    13:00 +19°C° 0 mm 9 mps 750 mmHg 42%
    14:00 +19°C° 0 mm 10 mps 749 mmHg 47%
    15:00 +18°C° 0 mm 10 mps 749 mmHg 52%
    16:00 +18°C° 0 mm 10 mps 749 mmHg 59%
    17:00 +17°C° 0 mm 9 mps 749 mmHg 67%
    18:00 +16°C° 0 mm 8 mps 749 mmHg 74%
    19:00 +16°C° 0.1 mm 8 mps 749 mmHg 75%
    20:00 +16°C° 0.1 mm 8 mps 750 mmHg 76%
    21:00 +16°C° 0.1 mm 7 mps 750 mmHg 76%
    22:00 +16°C° 1 mm 7 mps 750 mmHg 76%
    23:00 +16°C° 1 mm 7 mps 750 mmHg 76%

    16 December, Saturday

    Time Temperature Precipitation Wind Pressure Humidity
    00:00 +15°C° 1 mm 7 mps 750 mmHg 76%
    01:00 +15°C° 0.5 mm 6 mps 750 mmHg 78%
    02:00 +15°C° 0.5 mm 6 mps 750 mmHg 80%
    03:00 +15°C° 0.5 mm 6 mps 750 mmHg 81%
    04:00 +15°C° 0.1 mm 5 mps 750 mmHg 81%
    05:00 +14°C° 0.1 mm 5 mps 751 mmHg 81%
    06:00 +14°C° 0.1 mm 5 mps 751 mmHg 81%
    07:00 +14°C° 0 mm 4 mps 752 mmHg 75%
    08:00 +15°C° 0 mm 4 mps 753 mmHg 70%
    09:00 +15°C° 0 mm 4 mps 753 mmHg 64%
    10:00 +15°C° 0 mm 4 mps 754 mmHg 61%
    11:00 +15°C° 0 mm 4 mps 754 mmHg 59%
    12:00 +17°C° 0 mm 4 mps 754 mmHg 56%
    13:00 +17°C° 0 mm 4 mps 754 mmHg 56%
    14:00 +15°C° 0 mm 4 mps 754 mmHg 55%
    15:00 +16°C° 0 mm 3 mps 754 mmHg 55%
    16:00 +16°C° 0 mm 3 mps 754 mmHg 58%
    17:00 +15°C° 0 mm 2 mps 754 mmHg 60%
    18:00 +15°C° 0 mm 2 mps 755 mmHg 62%
    19:00 +14°C° 0 mm 2 mps 755 mmHg 64%
    20:00 +14°C° 0 mm 2 mps 755 mmHg 66%
    21:00 +14°C° 0 mm 2 mps 756 mmHg 68%
    22:00 +14°C° 0 mm 2 mps 756 mmHg 70%
    23:00 +13°C° 0 mm 3 mps 756 mmHg 72%
    Show more